Wind_Speed
30 33 28 30 35 33 30 26 26 30 36 36 39 34 30 31 31 33 34 36 35 35 36 36 36 37 33 32 33 37 38 40 44 46 46 46 47 45 46 49 53 55 61 67 68 70 74
32 31 31 30 32 32 30 25 29 30 38 36 38 35 34 33 32 36 36 36 39 40 39 41 41 42 37 36 40 43 44 45 50 52 53 54 56 58 56 57 57 58 58 58 59 62 65
31 31 32 31 31 29 32 31 27 29 37 41 40 40 37 36 36 38 39 39 42 44 44 44 43 48 46 44 45 47 49 50 52 53 55 57 60 62 62 67 69 65 63 64 64 63 64
29 31 30 30 33 29 31 32 29 29 37 43 44 42 42 39 39 41 42 42 44 46 47 48 51 53 55 50 47 45 49 52 56 61 64 64 65 65 66 70 73 73 71 67 67 72 72
33 35 36 37 29 32 30 31 29 31 40 43 46 44 42 40 42 43 45 47 47 49 50 51 53 58 57 57 53 56 56 60 61 65 68 72 77 76 75 77 76 76 75 79 82 79 75
32 33 34 36 34 33 34 36 34 37 43 46 48 44 40 44 45 47 49 50 50 54 54 56 57 63 62 61 60 63 65 67 68 73 75 79 81 82 84 88 86 91 90 85 83 89 87
37 34 34 35 35 37 38 36 38 46 47 46 47 43 43 46 49 52 53 52 54 57 59 62 65 66 69 72 71 73 75 77 78 83 87 90 93 93 97 100 99 98 99 95 94 93 94
39 41 42 39 40 42 41 40 46 46 44 46 46 45 45 47 50 53 54 56 59 63 65 66 68 71 74 75 78 79 81 82 87 92 97 101 105 109 110 111 110 110 109 105 108 106 106
37 38 43 43 41 44 40 41 46 41 42 45 46 47 47 50 51 53 55 56 62 66 73 70 73 76 78 81 83 86 87 93 97 99 104 112 116 116 120 123 126 124 119 119 118 115 116
38 40 41 38 38 36 39 43 41 42 43 47 47 49 48 50 54 56 57 63 66 73 79 78 79 81 83 86 89 93 94 100 105 110 117 123 124 125 131 134 134 130 132 130 129 127 122
37 35 35 38 41 41 44 42 43 45 46 46 48 50 53 54 55 58 62 67 71 75 81 80 86 90 94 95 100 103 109 113 118 123 123 125 126 130 134 135 136 136 136 134 133 133 134
32 35 36 37 38 41 41 42 44 45 45 47 49 51 54 57 61 64 67 71 79 78 80 88 93 98 103 107 113 117 121 124 126 128 130 129 123 120 119 120 119 119 122 125 126 129 133
34 32 34 35 35 35 39 42 44 46 47 48 51 53 57 60 63 68 74 75 85 83 91 95 98 101 107 113 119 125 127 131 133 127 118 108 102 101 98 95 98 97 97 98 103 108 109
32 35 33 33 35 37 41 45 47 48 49 52 54 57 60 62 67 73 76 82 85 89 96 100 105 112 118 120 124 127 134 131 119 104 93 85 88 91 88 84 79 80 80 82 83 87 92
31 35 33 35 39 45 45 47 50 49 52 55 56 60 62 67 73 76 82 86 89 98 100 105 110 114 120 127 132 132 123 108 96 88 80 75 79 82 77 73 68 67 72 71 71 74 82
34 37 36 39 43 43 45 48 49 50 54 56 59 61 66 71 74 79 83 90 96 103 109 113 115 119 123 125 127 118 102 92 87 80 75 71 67 73 70 63 62 59 63 62 62 65 73
39 43 42 39 42 44 48 51 48 52 54 59 62 67 71 76 79 85 87 98 104 109 112 116 117 124 124 124 119 104 92 84 77 76 71 62 58 62 56 58 56 53 57 58 59 61 63
37 38 41 41 42 48 49 47 48 53 58 61 65 71 77 80 84 86 91 99 105 115 119 119 124 125 124 118 107 97 88 76 72 67 67 59 53 51 52 51 51 49 50 52 53 57 56
42 38 40 40 45 44 47 45 51 56 60 64 69 76 77 83 86 90 99 105 112 120 122 124 127 127 121 110 95 91 83 77 73 66 61 55 51 50 47 46 44 45 46 47 48 53 53
39 42 43 44 44 47 47 49 54 57 62 67 74 78 80 88 87 92 101 109 119 126 126 132 130 126 116 101 94 85 78 76 74 68 59 51 47 45 45 43 41 41 41 43 44 47 50
37 38 42 44 47 46 49 54 55 60 65 71 75 79 86 88 93 98 102 111 121 126 131 133 133 120 107 93 91 81 77 78 75 68 59 51 47 43 40 38 41 40 38 39 42 47 49
40 40 44 48 45 48 53 57 58 64 69 75 81 84 90 92 98 104 106 114 125 132 132 137 132 117 104 93 85 77 75 72 70 65 57 50 45 41 39 35 37 37 36 36 36 40 45
40 41 46 45 47 50 55 59 63 66 73 80 86 90 95 95 102 105 110 118 128 136 133 137 127 115 100 94 86 78 73 70 66 61 55 48 43 38 37 34 34 33 31 32 31 33 35
44 46 46 50 52 54 55 61 65 70 77 84 90 96 97 96 105 106 115 125 132 132 139 137 129 113 97 92 83 78 73 69 64 57 51 45 41 37 35 33 32 31 28 28 29 31 32
47 48 50 52 53 54 58 64 67 74 81 87 92 93 94 102 109 111 119 130 132 135 142 141 131 112 97 91 80 76 74 71 65 55 50 44 38 36 35 34 33 29 27 26 28 29 31
44 48 50 51 53 56 61 64 70 77 83 88 94 93 98 106 110 114 123 133 139 141 141 140 127 108 93 88 78 75 73 72 67 60 50 47 43 38 33 31 32 30 27 25 26 28 29
44 47 47 51 56 61 64 68 75 81 87 90 92 94 100 108 113 115 123 131 136 139 140 139 123 107 95 86 77 74 73 71 67 61 57 49 40 34 35 35 33 31 27 24 24 27 28
45 44 49 56 60 63 68 74 79 85 88 91 93 99 105 110 116 120 125 134 135 140 140 133 120 102 93 84 77 74 73 70 66 61 56 52 46 41 35 28 27 30 32 27 24 23 25
47 49 55 60 64 67 72 78 83 86 89 91 95 102 106 112 120 124 131 136 137 141 140 129 117 98 92 82 76 74 74 71 66 60 54 50 47 43 38 34 29 26 26 27 27 26 24
Wind_Direction
284 290 297 308 310 307 315 317 320 336 337 339 343 339 336 337 333 334 337 336 335 333 336 334 333 329 321 308 303 292 289 291 291 287 283 279 276 271 265 261 260 258 257 258 257 258 258
282 290 296 306 313 312 310 314 321 321 326 330 333 332 329 330 328 331 330 330 329 327 325 326 325 327 318 307 305 297 291 287 284 282 282 281 281 279 275 270 268 265 262 260 259 259 256
287 292 296 299 304 310 314 307 311 310 318 323 323 326 321 325 325 325 326 324 323 323 323 320 320 316 317 314 305 295 295 294 291 283 280 277 277 277 273 274 271 266 263 263 266 267 267
283 287 291 296 300 311 311 309 304 306 316 317 317 321 319 319 319 322 324 320 319 321 317 316 316 315 316 310 307 302 299 294 297 298 293 289 285 280 275 268 270 268 267 268 261 260 260
286 285 286 290 300 296 301 305 308 303 311 316 316 317 314 314 316 319 319 320 316 318 317 314 312 313 311 308 304 302 295 295 295 297 297 296 295 292 287 283 274 268 262 262 265 262 260
292 294 294 293 293 300 301 293 296 298 303 314 313 314 307 314 313 314 317 317 314 317 314 313 311 309 308 306 304 301 298 295 292 291 291 292 291 287 286 282 278 273 273 269 261 262 262
281 288 295 299 295 293 295 298 294 290 298 308 308 310 308 311 311 314 314 315 316 316 315 311 310 307 309 307 305 302 300 297 294 292 291 291 291 289 287 287 280 275 270 268 268 263 257
278 280 284 293 296 294 292 291 294 300 303 303 305 308 306 308 310 312 313 314 314 314 314 312 310 304 304 303 302 302 299 295 293 291 290 287 285 284 283 281 281 274 269 268 267 265 263
286 286 286 287 292 293 295 294 299 302 300 304 306 306 305 306 309 309 311 311 309 311 313 313 314 312 309 306 302 298 295 294 292 290 288 286 283 280 278 278 277 275 269 266 263 264 262
289 288 289 291 295 290 294 301 300 302 302 304 305 303 303 305 306 310 311 311 313 313 312 311 311 308 303 297 295 294 293 292 289 290 290 287 284 281 278 275 273 271 269 266 262 260 261
293 296 291 280 285 294 296 296 298 301 302 302 304 305 307 306 307 308 308 309 310 315 313 313 314 309 307 305 300 300 297 296 293 291 289 285 281 277 275 273 274 272 269 265 264 262 259
288 291 290 289 289 290 296 298 299 301 301 304 308 308 306 307 309 310 311 311 314 312 311 311 312 311 312 311 308 305 301 298 296 293 291 289 286 281 276 274 272 269 268 266 264 262 260
286 296 295 284 288 295 303 305 304 302 304 308 309 307 309 311 314 314 313 312 314 315 315 313 312 311 311 312 309 305 302 299 297 297 296 293 289 284 279 275 273 270 268 264 262 261 261
287 290 284 294 299 303 306 305 306 306 310 308 308 310 311 312 312 315 314 314 316 317 318 315 315 318 318 312 309 306 303 304 303 300 297 295 291 285 282 278 276 273 268 264 261 259 257
283 288 293 303 306 306 305 306 307 307 308 309 310 311 312 313 315 315 318 322 320 320 319 319 319 318 315 313 309 308 309 308 305 304 302 298 293 288 284 283 279 274 270 266 259 255 254
282 289 293 299 300 302 306 308 308 310 308 306 310 312 312 315 315 317 322 323 324 322 320 320 320 318 317 314 312 314 314 313 312 309 305 301 296 289 289 284 279 274 270 266 261 256 253
282 287 289 293 297 301 305 309 311 308 307 310 310 311 313 317 315 320 320 323 320 324 325 324 324 323 320 319 318 319 319 317 315 312 308 305 298 292 290 286 280 272 267 263 260 255 253
278 292 288 295 299 299 304 308 307 307 309 309 310 313 314 315 320 322 325 325 324 330 329 328 328 327 325 324 323 323 322 321 319 317 314 310 303 296 291 286 283 279 271 267 263 260 255
281 287 295 297 303 307 306 306 305 308 309 310 312 313 315 316 319 324 324 327 329 332 331 332 332 331 328 325 326 326 324 324 325 324 319 313 307 300 294 290 283 278 272 267 262 260 257
288 296 296 300 303 306 305 304 306 309 310 310 313 315 317 323 323 322 323 329 332 333 335 335 335 333 330 329 329 328 327 327 328 327 323 316 309 302 298 294 287 277 271 268 262 258 256
294 297 299 301 303 302 302 306 310 310 311 314 316 318 322 321 325 326 327 331 334 336 337 337 336 334 332 332 332 330 332 331 329 327 324 318 312 305 298 293 287 283 276 265 261 258 253
289 297 301 304 302 301 305 308 310 311 312 315 317 319 322 324 325 325 329 332 335 337 339 339 338 335 335 333 333 332 333 332 328 326 325 318 312 307 301 294 288 287 279 271 261 252 252
290 297 303 301 302 304 306 310 311 312 314 317 318 321 321 322 325 327 330 332 334 337 340 342 338 337 336 334 335 333 334 333 331 328 326 321 313 308 303 299 295 292 284 275 265 258 250
288 296 299 303 303 304 309 310 310 313 315 315 319 322 322 326 326 329 330 333 337 339 341 343 339 338 337 336 334 333 334 336 335 331 328 325 319 315 309 303 298 298 289 275 268 262 256
291 294 295 300 302 308 310 310 312 314 314 319 320 322 327 328 330 334 334 335 339 341 342 342 341 339 337 336 334 333 334 335 336 336 332 330 327 322 317 309 303 303 297 283 271 264 259
291 293 294 300 306 309 310 313 313 312 317 319 320 323 325 329 331 333 332 338 340 341 342 341 341 339 336 336 334 334 335 335 337 336 337 334 331 327 321 312 305 302 299 290 276 271 264
291 293 299 304 305 307 309 312 313 315 317 319 322 326 326 330 332 332 333 338 341 340 341 342 341 338 338 336 335 335 335 336 336 335 335 334 331 327 325 318 309 303 299 294 281 271 269
294 295 301 304 307 309 312 312 314 317 317 319 323 325 331 335 333 333 334 340 340 341 340 343 342 338 337 336 335 335 336 337 336 336 333 331 330 326 322 321 312 303 301 300 291 279 267
294 299 303 309 307 309 311 313 315 315 318 322 325 329 331 333 335 336 336 340 339 340 339 341 341 338 337 336 336 337 336 336 337 335 333 331 329 327 322 322 322 310 297 293 293 290 278
Height
10749 10747 10745 10742 10740 10737 10734 10732 10729 10727 10723 10720 10718 10715 10711 10708 10704 10699 10694 10690 10687 10684 10681 10678 10675 10672 10669 10666 10665 10660 10656 10651 10646 10643 10641 10638 10635 10635 10634 10631 10625 10631 10623 10625 10621 10622 10623
10744 10742 10739 10737 10735 10733 10730 10728 10725 10721 10719 10715 10712 10709 10706 10702 10698 10693 10689 10685 10681 10677 10674 10670 10667 10663 10660 10657 10651 10647 10645 10642 10637 10632 10627 10623 10620 10618 10619 10615 10612 10610 10609 10606 10606 10605 10605
10740 10737 10735 10733 10730 10728 10725 10722 10720 10716 10714 10710 10707 10704 10699 10695 10692 10688 10684 10679 10675 10670 10667 10663 10659 10655 10652 10647 10643 10635 10630 10626 10621 10616 10611 10607 10603 10600 10599 10594 10592 10589 10591 10590 10589 10584 10585
10734 10732 10730 10728 10725 10723 10720 10717 10714 10710 10708 10704 10700 10697 10693 10688 10683 10680 10676 10672 10667 10662 10657 10652 10647 10642 10639 10633 10628 10623 10616 10612 10606 10599 10595 10590 10585 10580 10578 10575 10573 10571 10571 10567 10565 10563 10565
10727 10725 10723 10721 10719 10717 10713 10710 10707 10704 10702 10698 10693 10689 10685 10680 10675 10671 10666 10661 10657 10653 10647 10642 10635 10628 10625 10619 10614 10609 10603 10593 10589 10583 10574 10567 10562 10558 10554 10549 10549 10548 10551 10546 10541 10541 10541
10721 10718 10716 10714 10712 10709 10706 10704 10699 10697 10694 10691 10686 10681 10677 10673 10667 10662 10657 10652 10646 10642 10635 10629 10624 10614 10609 10603 10598 10590 10583 10577 10568 10560 10553 10546 10540 10533 10529 10521 10524 10513 10515 10518 10521 10517 10516
10714 10712 10710 10707 10704 10702 10699 10696 10693 10690 10686 10682 10678 10674 10669 10664 10659 10653 10646 10642 10636 10630 10623 10614 10606 10598 10591 10584 10579 10570 10564 10554 10546 10537 10527 10518 10510 10504 10496 10489 10489 10482 10481 10485 10485 10485 10489
10707 10704 10703 10700 10698 10695 10692 10688 10685 10682 10679 10675 10670 10666 10661 10657 10651 10644 10637 10630 10623 10615 10609 10605 10597 10587 10577 10567 10557 10550 10542 10533 10522 10511 10499 10489 10479 10469 10463 10454 10448 10446 10443 10451 10446 10449 10446
10699 10696 10694 10693 10690 10688 10684 10681 10677 10673 10669 10666 10662 10657 10653 10647 10642 10635 10628 10622 10613 10604 10594 10587 10579 10568 10556 10544 10535 10528 10519 10504 10491 10479 10467 10454 10440 10433 10421 10413 10402 10402 10398 10406 10405 10406 10410
10691 10688 10686 10684 10683 10680 10677 10674 10669 10664 10659 10657 10653 10647 10642 10637 10631 10623 10615 10606 10597 10589 10576 10569 10560 10549 10535 10519 10508 10495 10487 10475 10460 10444 10431 10410 10396 10382 10370 10357 10351 10359 10349 10351 10357 10361 10369
10683 10680 10678 10677 10674 10672 10669 10665 10662 10657 10652 10647 10642 10636 10629 10624 10618 10610 10603 10593 10583 10573 10555 10547 10535 10522 10508 10495 10477 10458 10439 10424 10409 10394 10383 10362 10351 10331 10313 10299 10292 10295 10295 10300 10303 10307 10312
10675 10673 10671 10669 10666 10663 10660 10657 10651 10646 10642 10637 10632 10626 10620 10612 10605 10598 10589 10578 10566 10554 10542 10527 10511 10496 10480 10458 10433 10413 10390 10372 10356 10338 10318 10300 10284 10266 10252 10244 10244 10244 10242 10245 10247 10252 10253
10668 10667 10665 10662 10659 10656 10652 10648 10642 10636 10631 10627 10622 10615 10609 10602 10593 10583 10573 10562 10548 10536 10518 10502 10486 10466 10447 10425 10399 10367 10346 10329 10303 10284 10260 10242 10223 10207 10202 10202 10195 10198 10201 10205 10204 10204 10215
10661 10660 10658 10655 10652 10648 10643 10639 10633 10625 10620 10615 10610 10604 10597 10589 10579 10568 10557 10544 10532 10517 10497 10475 10456 10431 10405 10384 10361 10329 10298 10273 10247 10230 10217 10208 10183 10161 10157 10160 10165 10160 10163 10164 10168 10168 10169
10655 10653 10650 10648 10644 10639 10634 10629 10622 10616 10609 10603 10598 10592 10582 10573 10563 10551 10539 10527 10510 10493 10475 10455 10430 10405 10376 10342 10310 10286 10258 10233 10210 10194 10182 10171 10147 10129 10128 10128 10132 10131 10123 10129 10135 10134 10128
10647 10645 10643 10639 10635 10630 10624 10618 10612 10607 10600 10593 10586 10578 10568 10559 10547 10535 10521 10505 10488 10469 10446 10421 10396 10369 10340 10307 10272 10244 10221 10200 10176 10160 10148 10138 10124 10101 10098 10102 10100 10102 10095 10098 10102 10104 10100
10640 10638 10635 10630 10625 10620 10615 10608 10603 10597 10589 10582 10573 10565 10554 10543 10532 10519 10500 10485 10466 10445 10420 10392 10364 10334 10298 10267 10229 10208 10191 10170 10154 10133 10119 10111 10097 10080 10080 10073 10072 10074 10070 10070 10072 10076 10078
10631 10630 10625 10620 10616 10610 10606 10599 10592 10585 10577 10568 10560 10550 10538 10527 10515 10502 10484 10465 10445 10418 10388 10361 10333 10298 10263 10233 10201 10178 10161 10148 10134 10118 10095 10084 10076 10066 10056 10054 10050 10050 10050 10050 10052 10052 10059
10623 10620 10615 10611 10606 10601 10594 10591 10583 10575 10566 10557 10548 10538 10526 10512 10496 10481 10465 10444 10421 10393 10363 10330 10301 10267 10234 10205 10184 10159 10137 10122 10109 10097 10080 10066 10057 10046 10041 10037 10036 10032 10030 10031 10033 10031 10036
10614 10611 10606 10601 10596 10591 10583 10579 10572 10564 10554 10545 10535 10523 10512 10499 10483 10465 10444 10421 10397 10367 10334 10298 10271 10241 10210 10183 10159 10141 10123 10103 10089 10076 10064 10052 10042 10032 10024 10020 10017 10016 10016 10015 10016 10015 10017
10605 10602 10597 10592 10586 10580 10573 10566 10560 10551 10542 10533 10521 10507 10494 10477 10464 10446 10426 10402 10378 10349 10312 10279 10244 10217 10193 10170 10144 10124 10106 10083 10069 10059 10048 10037 10026 10018 10012 10007 10000 10000 10000 10000 9998 9997 9999
10596 10592 10587 10582 10575 10569 10562 10554 10546 10539 10529 10517 10505 10492 10478 10463 10446 10426 10407 10383 10356 10328 10296 10258 10224 10197 10169 10148 10134 10114 10095 10080 10061 10045 10034 10023 10014 10006 9998 9994 9988 9985 9983 9981 9982 9981 9980
10587 10582 10577 10572 10566 10559 10551 10541 10534 10525 10514 10502 10488 10476 10461 10445 10427 10408 10388 10364 10338 10305 10276 10242 10208 10179 10155 10132 10112 10098 10085 10070 10052 10035 10021 10012 10002 9994 9987 9981 9976 9972 9970 9967 9967 9966 9967
10577 10573 10567 10561 10555 10549 10542 10532 10523 10512 10501 10489 10476 10461 10448 10428 10408 10385 10365 10346 10318 10287 10254 10223 10190 10160 10141 10123 10102 10085 10071 10059 10045 10027 10013 10002 9990 9982 9976 9970 9965 9961 9958 9956 9955 9954 9954
10567 10562 10556 10550 10544 10538 10531 10521 10512 10501 10488 10475 10461 10448 10430 10412 10392 10369 10345 10320 10295 10265 10232 10199 10174 10148 10125 10108 10091 10075 10059 10046 10034 10021 10004 9994 9984 9974 9966 9959 9953 9950 9946 9945 9944 9943 9942
10556 10551 10545 10540 10534 10527 10518 10509 10498 10486 10474 10462 10448 10431 10415 10396 10374 10353 10328 10303 10270 10240 10216 10190 10161 10139 10119 10097 10079 10064 10048 10032 10019 10009 9998 9983 9973 9966 9959 9951 9945 9941 9937 9933 9932 9932 9932
10545 10540 10536 10529 10522 10514 10505 10495 10484 10472 10460 10448 10433 10417 10400 10380 10358 10340 10315 10289 10263 10237 10205 10175 10146 10122 10103 10086 10069 10055 10040 10024 10009 9995 9983 9974 9970 9961 9950 9941 9936 9931 9928 9925 9922 9921 9921
10535 10530 10524 10517 10510 10501 10491 10481 10470 10459 10446 10434 10418 10401 10383 10363 10343 10323 10300 10274 10248 10221 10194 10168 10139 10116 10097 10077 10060 10045 10029 10014 9999 9985 9973 9963 9955 9948 9943 9937 9931 9922 9917 9915 9912 9910 9910
10525 10520 10513 10505 10496 10487 10477 10467 10456 10444 10431 10417 10401 10383 10364 10344 10325 10303 10280 10255 10230 10203 10179 10153 10129 10107 10088 10069 10052 10036 10018 10003 9990 9977 9964 9953 9944 9937 9931 9926 9921 9916 9910 9906 9902 9899 9898